Location: Medlow Airstrip Trail, Medlow Bath NSW 2780, Australia
(33.6682°S, 150.3233°E)
Time: 18:25:45
(UTC+11:00)

Explorer 11/Cluster Stage 4 - Pass Details

Date: 25 September 2019
Orbit: 467 x 1259 km, 28.8° (Epoch: 18 October)

Event Time Altitude Azimuth Distance (km) Brightness Sun altitude
Rises 07:14:48 0° 319° (NW) 2,640 9.0 17.7°
Reaches altitude 10° 07:17:19 10° 336° (NNW) 1,846 8.4 18.2°
Maximum altitude 07:20:30 20° 25° (NNE) 1,423 8.6 18.9°
Drops below altitude 10° 07:24:09 10° 72° (ENE) 2,162 11.2 19.6°
Sets 07:27:23 0° 88° (E) 3,254 11.2 20.3°
